Location: Asheville, NC
(35.6000°N, 82.5500°W)
Time: 14:10:07
(UTC-05:00)

Vanguard 1 Rocket - Pass Details

Date: 15 December 2017
Orbit: 656 x 4222 km, 34.3° (Epoch: 18 January)

Event Time Altitude Azimuth Distance (km) Brightness Sun altitude
Rises 23:28:09 0° 286° (WNW) 6,678 12.0 -72.5°
Reaches altitude 10° 23:32:10 10° 281° (W) 6,049 11.7 -73.1°
Enters shadow 23:38:57 28° 268° (W) 5,234 11.1 -74.1°
Exits shadow 00:20:07 - 145° (SE) 7,688 12.0 -77.6°
Sets 00:21:12 0° 144° (SE) 7,839 12.1 -77.6°
